• In Hungary
  • List of Countries
  • For 7 days
  • Water Temperature
  • Satellite Maps
  • Weather Map
  • News
  • Weather Widgets
  • user-avatar
    Login

    Hourly Weather Raczyn

    Today, 18 November, Saturday

    Time Temperature Precipitation Wind Pressure Humidity
    00:00 +2°C° 0 mm 3 mps 761 mmHg 92%
    01:00 +1°C° 0 mm 3 mps 761 mmHg 92%
    02:00 +1°C° 0 mm 3 mps 761 mmHg 92%
    03:00 +1°C° 0 mm 3 mps 760 mmHg 92%
    04:00 +1°C° 0 mm 3 mps 760 mmHg 92%
    05:00 0°C° 0 mm 4 mps 759 mmHg 92%
    06:00 -1°C° 0 mm 4 mps 759 mmHg 92%
    07:00 -1°C° 0 mm 4 mps 758 mmHg 92%
    08:00 0°C° 0 mm 4 mps 758 mmHg 88%
    09:00 +1°C° 0 mm 5 mps 757 mmHg 83%
    10:00 +1°C° 0 mm 5 mps 757 mmHg 79%
    11:00 +2°C° 0 mm 6 mps 756 mmHg 74%
    12:00 +3°C° 0 mm 6 mps 755 mmHg 68%
    13:00 +4°C° 0 mm 7 mps 754 mmHg 63%
    14:00 +3°C° 0 mm 7 mps 753 mmHg 65%
    15:00 +3°C° 0 mm 6 mps 752 mmHg 67%
    16:00 +3°C° 0 mm 6 mps 751 mmHg 70%
    17:00 +2°C° 0.3 mm 7 mps 751 mmHg 72%
    18:00 +2°C° 0.3 mm 7 mps 750 mmHg 74%
    19:00 +2°C° 0.3 mm 7 mps 750 mmHg 76%
    20:00 +2°C° 0.1 mm 7 mps 750 mmHg 78%
    21:00 +2°C° 0.1 mm 6 mps 749 mmHg 80%
    22:00 +2°C° 0.1 mm 5 mps 749 mmHg 82%
    23:00 +2°C° 0 mm 5 mps 749 mmHg 82%

    Tomorrow, 19 November, Sunday

    Time Temperature Precipitation Wind Pressure Humidity
    00:00 +1°C° 0 mm 5 mps 749 mmHg 83%
    01:00 +1°C° 0 mm 5 mps 749 mmHg 84%
    02:00 +1°C° 0 mm 5 mps 749 mmHg 84%
    03:00 +1°C° 0 mm 6 mps 748 mmHg 84%
    04:00 +1°C° 0 mm 6 mps 748 mmHg 84%
    05:00 +1°C° 0.2 mm 6 mps 748 mmHg 83%
    06:00 0°C° 0.2 mm 7 mps 747 mmHg 82%
    07:00 +2°C° 0.2 mm 7 mps 747 mmHg 82%
    08:00 +2°C° 0.1 mm 7 mps 747 mmHg 81%
    09:00 +2°C° 0.1 mm 7 mps 747 mmHg 80%
    10:00 +3°C° 0.1 mm 7 mps 747 mmHg 79%
    11:00 +3°C° 0.3 mm 7 mps 747 mmHg 78%
    12:00 +3°C° 0.3 mm 7 mps 747 mmHg 78%
    13:00 +3°C° 0.3 mm 7 mps 746 mmHg 77%
    14:00 +3°C° 0.2 mm 7 mps 746 mmHg 77%
    15:00 +3°C° 0.2 mm 7 mps 746 mmHg 77%
    16:00 +3°C° 0.2 mm 7 mps 746 mmHg 76%
    17:00 +3°C° 0.1 mm 7 mps 746 mmHg 75%
    18:00 +2°C° 0.1 mm 7 mps 746 mmHg 73%
    19:00 0°C° 0.1 mm 7 mps 746 mmHg 71%
    20:00 +2°C° 0.3 mm 7 mps 746 mmHg 72%
    21:00 +2°C° 0.3 mm 7 mps 747 mmHg 73%
    22:00 +1°C° 0.3 mm 8 mps 747 mmHg 74%
    23:00 +1°C° 0.1 mm 8 mps 747 mmHg 74%

    Day after tomorrow, 20 November, Monday

    Time Temperature Precipitation Wind Pressure Humidity
    00:00 +1°C° 0.1 mm 8 mps 748 mmHg 75%
    01:00 +1°C° 0.1 mm 8 mps 748 mmHg 76%
    02:00 0°C° 0.1 mm 7 mps 749 mmHg 77%
    03:00 0°C° 0.1 mm 7 mps 749 mmHg 78%
    04:00 +1°C° 0.1 mm 6 mps 750 mmHg 78%
    05:00 -1°C° 0 mm 6 mps 750 mmHg 79%
    06:00 0°C° 0 mm 5 mps 751 mmHg 80%
    07:00 -1°C° 0 mm 5 mps 752 mmHg 81%
    08:00 0°C° 0 mm 5 mps 752 mmHg 79%
    09:00 +1°C° 0 mm 5 mps 753 mmHg 78%
    10:00 +1°C° 0 mm 5 mps 753 mmHg 76%
    11:00 +2°C° 0 mm 5 mps 753 mmHg 75%
    12:00 +2°C° 0 mm 5 mps 753 mmHg 73%
    13:00 +3°C° 0 mm 5 mps 753 mmHg 72%
    14:00 +4°C° 0 mm 4 mps 753 mmHg 75%
    15:00 +3°C° 0 mm 4 mps 753 mmHg 77%
    16:00 +3°C° 0 mm 4 mps 753 mmHg 80%
    17:00 +2°C° 0 mm 3 mps 753 mmHg 83%
    18:00 +2°C° 0 mm 3 mps 753 mmHg 86%
    19:00 +1°C° 0 mm 3 mps 753 mmHg 89%
    20:00 +1°C° 0 mm 3 mps 753 mmHg 91%
    21:00 +2°C° 0 mm 2 mps 753 mmHg 92%
    22:00 +2°C° 0 mm 2 mps 753 mmHg 94%
    23:00 +3°C° 0 mm 1 mps 752 mmHg 94%

    21 November, Tuesday

    Time Temperature Precipitation Wind Pressure Humidity
    00:00 +3°C° 0 mm 1 mps 752 mmHg 95%
    01:00 +2°C° 0 mm 0 mps 752 mmHg 95%
    02:00 +2°C° 0 mm 0 mps 752 mmHg 95%
    03:00 +1°C° 0 mm 0 mps 752 mmHg 95%
    04:00 +1°C° 0 mm 0 mps 752 mmHg 95%
    05:00 +1°C° 0 mm 0 mps 752 mmHg 95%
    06:00 +1°C° 0 mm 0 mps 752 mmHg 95%
    07:00 +1°C° 0 mm 0 mps 752 mmHg 95%
    08:00 +1°C° 0 mm 0 mps 753 mmHg 92%
    09:00 +2°C° 0 mm 0 mps 753 mmHg 89%
    10:00 +3°C° 0 mm 0 mps 754 mmHg 86%
    11:00 +4°C° 0 mm 1 mps 754 mmHg 83%
    12:00 +5°C° 0 mm 1 mps 754 mmHg 80%
    13:00 +6°C° 0 mm 1 mps 754 mmHg 77%
    14:00 +5°C° 0 mm 1 mps 755 mmHg 81%
    15:00 +4°C° 0 mm 1 mps 755 mmHg 85%
    16:00 +3°C° 0 mm 1 mps 755 mmHg 89%
    17:00 +3°C° 0 mm 1 mps 756 mmHg 90%
    18:00 +3°C° 0 mm 1 mps 756 mmHg 91%
    19:00 +2°C° 0 mm 1 mps 756 mmHg 92%
    20:00 +1°C° 0 mm 0 mps 757 mmHg 92%
    21:00 +1°C° 0 mm 0 mps 757 mmHg 92%
    22:00 +1°C° 0 mm 0 mps 757 mmHg 92%
    23:00 +1°C° 0 mm 0 mps 757 mmHg 92%

    22 November, Wednesday

    Time Temperature Precipitation Wind Pressure Humidity
    00:00 +2°C° 0 mm 1 mps 757 mmHg 92%
    01:00 +2°C° 0 mm 1 mps 758 mmHg 93%
    02:00 +1°C° 0 mm 2 mps 757 mmHg 91%
    03:00 +1°C° 0 mm 2 mps 757 mmHg 90%
    04:00 +1°C° 0 mm 3 mps 757 mmHg 89%
    05:00 +1°C° 0.1 mm 3 mps 756 mmHg 89%
    06:00 +1°C° 0.1 mm 3 mps 756 mmHg 88%
    07:00 0°C° 0.1 mm 4 mps 756 mmHg 88%
    08:00 +1°C° 0.1 mm 4 mps 756 mmHg 88%
    09:00 +1°C° 0.1 mm 4 mps 755 mmHg 87%
    10:00 +2°C° 0.1 mm 5 mps 755 mmHg 87%
    11:00 +2°C° 0 mm 5 mps 755 mmHg 88%
    12:00 +4°C° 0 mm 4 mps 755 mmHg 89%
    13:00 +4°C° 0 mm 4 mps 755 mmHg 90%
    14:00 +5°C° 0 mm 4 mps 755 mmHg 91%
    15:00 +5°C° 0 mm 3 mps 754 mmHg 92%
    16:00 +5°C° 0 mm 3 mps 754 mmHg 93%
    17:00 +5°C° 0 mm 3 mps 754 mmHg 94%
    18:00 +4°C° 0 mm 3 mps 755 mmHg 94%
    19:00 +4°C° 0 mm 3 mps 755 mmHg 95%
    20:00 +4°C° 0 mm 3 mps 755 mmHg 95%
    21:00 +4°C° 0 mm 3 mps 755 mmHg 95%
    22:00 +4°C° 0 mm 3 mps 755 mmHg 95%
    23:00 +4°C° 0 mm 3 mps 755 mmHg 94%

    23 November, Thursday

    Time Temperature Precipitation Wind Pressure Humidity
    00:00 +3°C° 0 mm 3 mps 755 mmHg 94%
    01:00 +3°C° 0 mm 3 mps 755 mmHg 93%
    02:00 +3°C° 0 mm 3 mps 755 mmHg 93%
    03:00 +3°C° 0 mm 3 mps 755 mmHg 92%
    04:00 +3°C° 0 mm 3 mps 755 mmHg 91%
    05:00 +3°C° 0 mm 3 mps 755 mmHg 90%
    06:00 +3°C° 0 mm 3 mps 755 mmHg 89%
    07:00 +3°C° 0 mm 3 mps 755 mmHg 88%
    08:00 +4°C° 0 mm 3 mps 755 mmHg 83%
    09:00 +5°C° 0 mm 4 mps 755 mmHg 79%
    10:00 +5°C° 0 mm 4 mps 755 mmHg 74%
    11:00 +6°C° 0 mm 4 mps 755 mmHg 70%
    12:00 +7°C° 0 mm 4 mps 755 mmHg 67%
    13:00 +8°C° 0 mm 4 mps 755 mmHg 64%
    14:00 +7°C° 0 mm 4 mps 755 mmHg 67%
    15:00 +7°C° 0 mm 4 mps 755 mmHg 71%
    16:00 +6°C° 0 mm 4 mps 755 mmHg 75%
    17:00 +6°C° 0 mm 4 mps 755 mmHg 76%
    18:00 +6°C° 0 mm 4 mps 755 mmHg 78%
    19:00 +6°C° 0 mm 4 mps 755 mmHg 80%
    20:00 +5°C° 0 mm 4 mps 755 mmHg 81%
    21:00 +5°C° 0 mm 4 mps 755 mmHg 82%
    22:00 +5°C° 0 mm 4 mps 755 mmHg 83%
    23:00 +5°C° 0 mm 4 mps 755 mmHg 82%
    Show more